Regional Weather Roundup
Issued by NWS

Home | Current Version | Previous Version | Graphics & Text | Print | Product List | Glossary On
Versions: 1 2 3 4 5 6 7 8 9 10 11 12 13 14 15 16 17 18 19 20 21 22 23 24 25 26 27 28 29 30 31 32 33 34 35 36 37 38 39 40 41 42 43 44 45 46 47 48 49 50
000
ASUS43 KLMK 241610
RWRKY
KENTUCKY REGIONAL WEATHER ROUNDUP
NATIONAL WEATHER SERVICE LOUISVILLE KY
1200 PM EDT TUE MAY 24 2016

NOTE "FAIR" INDICATES FEW OR NO CLOUDS BELOW 12,000 FEET
WITH NO SIGNIFICANT WEATHER AND/OR OBSTRUCTIONS TO VISIBILITY.

KYZ001>023-026-027-061>063-070>075-241700-
WESTERN AND SOUTH CENTRAL KENTUCKY

CITY           SKY/WX    TMP DP  RH WIND       PRES   REMARKS
PADUCAH        CLOUDY    74  60  61 S3        30.07R
HENDERSON      CLOUDY    77  55  47 S9        30.08R
OWENSBORO      MOSUNNY   79  58  48 S8        30.10S
HOPKINSVILLE   CLOUDY    78  59  52 S8        30.11S
BOWLING GREEN  SUNNY     79  56  45 S6        30.12S
GLASGOW        MOSUNNY   78  50  37 W5        30.13S
$$

KYZ024-025-028>034-038-045-046-053-241700-
NORTH CENTRAL KENTUCKY

CITY           SKY/WX    TMP DP  RH WIND       PRES   REMARKS
LOUISVILLE/SDF MOSUNNY   79  46  31 VRB6      30.12S
LOUISVILLE/LOU SUNNY     77  49  37 S5        30.12S
FORT KNOX      SUNNY     78  49  36 S8        30.11S
$$

KYZ035>037-039>044-047>052-055>060-089>105-241700-
NORTHEAST KENTUCKY

CITY           SKY/WX    TMP DP  RH WIND       PRES   REMARKS
LEXINGTON      SUNNY     75  47  36 VRB7      30.15R
COVINGTON      MOSUNNY   75  50  41 SW5       30.13S
FRANKFORT      SUNNY     77  46  33 VRB6      30.12F
$$

KYZ054-064>069-076>088-106>120-241700-
SOUTHEAST KENTUCKY

CITY           SKY/WX    TMP DP  RH WIND       PRES   REMARKS
JACKSON        SUNNY     73  53  49 S3        30.17R
LONDON         SUNNY     74  52  46 VRB6      30.16S
SOMERSET       SUNNY     72  52  49 CALM      30.17R
MIDDLESBORO    SUNNY     74  53  48 SW6       30.17S
MONTICELLO     SUNNY     76  50  40 W5        30.17S
$$




USA.gov is the U.S. government's official web portal to all federal, state and local government web resources and services.